Retour au catalogue

CZ-6A DEB

ActifPO
NORAD 60842·DEBRIS·🇨🇳 China

Lancé Aug 6, 2024 depuis Taiyuan Satellite Launch Center

Loading…

Prochains Passages (prochaines 24 heures)

TLE

FraisSource: Space-Track

Époque: Sep 14, 2026, 16:35 UTC

1 60842U 24140HV  26257.69158950  .00001694  00000-0  17359-3 0  9994
2 60842  88.8927 245.3630 0147212 191.2207 168.5726 14.82132350112600

Suivez CZ-6A DEB en temps réel avec AllMySat

Download on the App Store